Tracking 17780 objects as of 29-July-2016
HD Live streaming from Space Station
objects crossing your sky now

GOES 4 AKM

Track GOES 4 AKM now!


NORAD ID: 11970
Int'l Code: 1980-074C
Perigee: 33,764.7 km
Apogee: 50,293.1 km
Inclination: 23.5 °
Period: 1,766.1 minutes
Semi major axis: 48399 km
RCS: 0.003 m2 (small)
Launch date: September 9, 1980
Source: United States (US)
Launch site: AIR FORCE EASTERN TEST RANGE (AFETR)

Note: This is a ROCKET BODY
Your satellite tracking list
Your tracking list is empty





NASA's NSSDC Master Catalog

Two Line Element Set (TLE):
1 11970U 80074C   16209.75272331 -.00000244 +00000-0 +00000-0 0  9996
2 11970 023.5366 345.4034 1707486 183.3276 050.8163 00.81533578009070
Source of the keplerian elements: AFSPC

N2YO: 1175